User: anonymous   Login
Location: Arroyo de San Miguel
(40.9167°N, 4.6667°W)
Time: 23:00:08
(UTC+00:00)
Language:

Cosmos 1356 Rocket - Orbit

View from above orbital plane
View from above orbital plane
View from above satellite
View from above satellite

Ground track
Ground track

The orbit data is extracted from the following two-line orbital elements,

1 13154U 82039B   25188.54337439  .00003074  00000-0  19416-3 0  9996
2 13154  81.1820 137.7302 0033100  41.4026 318.9698 15.08323462344664
Epoch (UTC): 07 July 2025 13:02:27
Eccentricity: 0.0033100
inclination: 81.1820°
perigee height: 518 km
apogee height: 564 km
right ascension of ascending node: 137.7302°
argument of perigee: 41.4026°
revolutions per day: 15.08323462
mean anomaly at epoch: 318.9698°
orbit number at epoch: 34466

The dashed part of the orbit path shows where the satellite is in the earth's shadow,  

DLR